sat.trackr.live / text

‹ back to catalog

STARLINK-36663

NORAD 67919 · 2026-036R

PAYLOAD ACTIVE UNKNOWN

§ Identity

Operator
Country
US
Launch date
2026-02-22
Launch site
AFETR
Launch vehicle
Mass (kg)
RCS (m²)

Purposes: comms

External: N2YO · Heavens-Above · Gunter

§ Orbital elements

Epoch: 2026-09-19T22:27:21.945024Z

Period
94.27 min
Inclination
42.9959°
Eccentricity
0.0000483
Mean motion
15.27592964 rev/d
Perigee alt
482.7 km
Apogee alt
483.3 km
Semi-major
6,861.1 km
B*
5.7559e-4
RAAN
227.8976°
Arg perigee
316.5435°
Mean anomaly
43.5379°
Rev number
3,343

§ Raw data

STARLINK-366631 67919U 26036R   26262.93567066  .00015617  00000+0  57559-3 0  99922 67919  42.9959 227.8976 0000483 316.5435  43.5379 15.27592964 33439

JSON: /api/v1/satellites/67919 · /tle

For live sub-satellite position, see the globe view (requires WebGL).

§ Visibility from observer

Set your observer location to see the next 7 days of passes ≥ 10°. The values pass through the URL so the page stays shareable.

No JS? Fill the form by hand. The geolocation button needs JavaScript.